2015-12-13 00:02:06 r, 18.18m,0000000004Hz,0000102649c,0000000.223s, 011.6C,00002191
2015-12-13 00:12:05 r, 18.31m,0000000004Hz,0000115122c,0000000.250s, 011.6C,00002191
2015-12-13 00:22:04 r, 18.24m,0000000005Hz,0000108229c,0000000.235s, 011.6C,00002191
2015-12-13 00:32:05 r, 18.23m,0000000004Hz,0000107302c,0000000.233s, 011.6C,00002191
2015-12-13 00:42:04 r, 18.34m,0000000004Hz,0000117930c,0000000.256s, 011.6C,00002191
2015-12-13 00:52:05 r, 18.26m,0000000004Hz,0000110576c,0000000.240s, 011.6C,00002191
2015-12-13 01:02:05 r, 18.31m,0000000004Hz,0000114432c,0000000.248s, 011.6C,00002191
2015-12-13 01:12:04 r, 18.27m,0000000004Hz,0000110432c,0000000.240s, 011.2C,00002191
2015-12-13 01:22:04 r, 18.17m,0000000004Hz,0000100732c,0000000.219s, 011.2C,00002191
2015-12-13 01:32:05 r, 18.21m,0000000005Hz,0000105216c,0000000.228s, 011.2C,00002191
2015-12-13 01:42:04 r, 18.21m,0000000005Hz,0000104724c,0000000.227s, 011.2C,00002191
2015-12-13 01:52:04 r, 18.32m,0000000004Hz,0000115993c,0000000.252s, 011.2C,00002191
2015-12-13 02:02:05 r, 18.26m,0000000004Hz,0000109371c,0000000.237s, 011.2C,00002191
2015-12-13 02:12:04 r, 18.30m,0000000004Hz,0000113633c,0000000.247s, 011.2C,00002191
2015-12-13 02:22:04 r, 18.33m,0000000004Hz,0000117090c,0000000.254s, 011.2C,00002191
2015-12-13 02:32:04 r, 18.30m,0000000004Hz,0000113650c,0000000.247s, 011.2C,00002191
2015-12-13 02:42:04 r, 18.25m,0000000005Hz,0000108463c,0000000.235s, 011.2C,00002191
2015-12-13 02:52:04 r, 18.16m,0000000004Hz,0000099639c,0000000.216s, 011.2C,00002191
2015-12-13 03:02:04 r, 18.11m,0000000005Hz,0000096233c,0000000.209s, 011.2C,00002191
2015-12-13 03:12:04 r, 18.10m,0000000005Hz,0000095069c,0000000.206s, 011.2C,00002191
2015-12-13 03:22:04 r, 18.00m,0000000006Hz,0000087266c,0000000.189s, 011.2C,00002191
2015-12-13 03:32:05 r, 18.04m,0000000006Hz,0000090237c,0000000.196s, 011.2C,00002191
2015-12-13 03:42:04 r, 17.96m,0000000005Hz,0000084403c,0000000.183s, 011.2C,00002191
2015-12-13 03:52:04 r, 17.98m,0000000005Hz,0000085295c,0000000.185s, 011.2C,00002191
2015-12-13 04:02:04 r, 17.94m,0000000006Hz,0000082163c,0000000.178s, 011.2C,00002191
2015-12-13 04:12:04 r, 17.97m,0000000006Hz,0000084745c,0000000.184s, 011.2C,00002191
2015-12-13 04:22:04 r, 18.07m,0000000005Hz,0000093064c,0000000.202s, 011.2C,00002191
2015-12-13 04:32:06 r, 18.14m,0000000004Hz,0000098694c,0000000.214s, 011.2C,00002191
2015-12-13 04:42:04 r, 18.12m,0000000004Hz,0000097083c,0000000.211s, 011.2C,00002191
2015-12-13 04:52:04 r, 18.16m,0000000005Hz,0000099683c,0000000.216s, 011.2C,00002191
2015-12-13 05:02:05 r, 18.27m,0000000004Hz,0000110540c,0000000.240s, 011.2C,00002191
2015-12-13 05:12:04 r, 18.35m,0000000004Hz,0000118901c,0000000.258s, 011.2C,00002191
2015-12-13 05:22:04 r, 18.36m,0000000004Hz,0000120118c,0000000.261s, 011.2C,00002191
2015-12-13 05:32:04 r, 18.31m,0000000004Hz,0000115087c,0000000.250s, 011.2C,00002191
2015-12-13 05:42:04 r, 18.30m,0000000004Hz,0000113370c,0000000.246s, 011.2C,00002191
2015-12-13 05:52:04 r, 18.30m,0000000004Hz,0000114139c,0000000.248s, 011.2C,00002191
2015-12-13 06:02:04 r, 18.22m,0000000005Hz,0000105595c,0000000.229s, 011.2C,00002191
2015-12-13 06:12:04 r, 18.14m,0000000005Hz,0000098557c,0000000.214s, 011.6C,00002191
2015-12-13 06:22:04 r, 18.08m,0000000005Hz,0000094106c,0000000.204s, 011.6C,00002191
2015-12-13 06:32:04 r, 18.08m,0000000005Hz,0000093939c,0000000.204s, 011.9C,00002191
2015-12-13 06:42:04 r, 18.03m,0000000005Hz,0000089440c,0000000.194s, 011.9C,00002191
2015-12-13 06:52:04 r, 18.04m,0000000005Hz,0000090299c,0000000.196s, 011.9C,00002191
2015-12-13 07:02:04 r, 18.04m,0000000005Hz,0000090263c,0000000.196s, 011.9C,00002191
2015-12-13 07:12:04 r, 17.49m,0000000008Hz,0000054088c,0000000.117s, 011.9C,00002191
2015-12-13 07:22:04 r, 16.26m,0000000026Hz,0000017656c,0000000.038s, 011.9C,00002191
2015-12-13 07:32:05 r, 14.43m,0000000143Hz,0000000000c,0000000.000s, 011.9C,00002191
2015-12-13 07:42:04 r, 12.48m,0000000862Hz,0000000000c,0000000.000s, 011.6C,00002191
2015-12-13 07:52:04 r, 10.60m,0000004884Hz,0000000000c,0000000.000s, 011.6C,00002191
2015-12-13 08:02:04 r, 08.97m,0000021775Hz,0000000000c,0000000.000s, 011.2C,00002191
2015-12-13 08:12:04 r, 07.82m,0000062872Hz,0000000000c,0000000.000s, 011.2C,00002191
2015-12-13 08:22:04 r, 07.02m,0000131841Hz,0000000000c,0000000.000s, 010.9C,00002191
2015-12-13 08:32:05 r, 06.35m,0000243956Hz,0000000000c,0000000.000s, 010.9C,00002191
2015-12-13 08:42:04 r, 05.90m,0000367602Hz,0000000000c,0000000.000s, 010.6C,00002191
2015-12-13 08:52:04 r, 00.00m,0000580810Hz,0000000000c,0000000.000s, 010.6C,00002191
2015-12-13 09:02:04 r, 00.00m,0000597179Hz,0000000000c,0000000.000s, 010.6C,00002191
2015-12-13 09:12:04 r, 00.00m,0000597163Hz,0000000000c,0000000.000s, 010.6C,00002191
2015-12-13 09:22:04 r, 00.00m,0000597039Hz,0000000000c,0000000.000s, 011.2C,00002191
2015-12-13 09:32:04 r, 00.00m,0000597141Hz,0000000000c,0000000.000s, 011.6C,00002191
2015-12-13 09:42:04 r, 00.00m,0000597038Hz,0000000000c,0000000.000s, 011.6C,00002191
2015-12-13 09:52:06 r, 00.00m,0000597029Hz,0000000000c,0000000.000s, 011.9C,00002191
2015-12-13 10:02:06 r, 00.00m,0000597006Hz,0000000000c,0000000.000s, 012.2C,00002191
2015-12-13 10:12:04 r, 00.00m,0000596954Hz,0000000000c,0000000.000s, 012.5C,00002191
2015-12-13 10:22:04 r, 00.00m,0000596893Hz,0000000000c,0000000.000s, 012.8C,00002191
2015-12-13 10:32:04 r, 00.00m,0000596864Hz,0000000000c,0000000.000s, 013.5C,00002191
2015-12-13 10:42:04 r, 00.00m,0000596841Hz,0000000000c,0000000.000s, 013.8C,00002191
2015-12-13 10:52:04 r, 00.00m,0000596729Hz,0000000000c,0000000.000s, 013.8C,00002191
2015-12-13 11:02:05 r, 00.00m,0000596798Hz,0000000000c,0000000.000s, 014.1C,00002191
2015-12-13 11:12:04 r, 00.00m,0000596789Hz,0000000000c,0000000.000s, 014.5C,00002191
2015-12-13 11:22:04 r, 00.00m,0000596724Hz,0000000000c,0000000.000s, 014.5C,00002191
2015-12-13 11:32:04 r, 00.00m,0000596773Hz,0000000000c,0000000.000s, 014.8C,00002191
2015-12-13 11:42:04 r, 00.00m,0000596771Hz,0000000000c,0000000.000s, 015.1C,00002191
2015-12-13 11:52:04 r, 00.00m,0000596727Hz,0000000000c,0000000.000s, 015.1C,00002191
2015-12-13 12:02:05 r, 00.00m,0000596699Hz,0000000000c,0000000.000s, 015.1C,00002191
2015-12-13 12:12:04 r, 00.00m,0000596625Hz,0000000000c,0000000.000s, 014.8C,00002191
2015-12-13 12:22:04 r, 00.00m,0000596631Hz,0000000000c,0000000.000s, 014.8C,00002191
2015-12-13 12:32:04 r, 00.00m,0000596679Hz,0000000000c,0000000.000s, 015.1C,00002191
2015-12-13 12:42:04 r, 00.00m,0000596789Hz,0000000000c,0000000.000s, 014.5C,00002191
2015-12-13 12:52:04 r, 00.00m,0000596713Hz,0000000000c,0000000.000s, 014.1C,00002191
2015-12-13 13:02:04 r, 00.00m,0000596775Hz,0000000000c,0000000.000s, 014.5C,00002191
2015-12-13 13:12:04 r, 00.00m,0000596657Hz,0000000000c,0000000.000s, 014.8C,00002191
2015-12-13 13:22:04 r, 00.00m,0000596649Hz,0000000000c,0000000.000s, 015.1C,00002191
2015-12-13 13:32:04 r, 00.00m,0000596762Hz,0000000000c,0000000.000s, 014.8C,00002191
2015-12-13 13:42:05 r, 00.00m,0000596848Hz,0000000000c,0000000.000s, 013.8C,00002191
2015-12-13 13:52:04 r, 00.00m,0000596737Hz,0000000000c,0000000.000s, 013.8C,00002191
2015-12-13 14:02:04 r, 00.00m,0000596738Hz,0000000000c,0000000.000s, 014.5C,00002191
2015-12-13 14:12:04 r, 00.00m,0000596694Hz,0000000000c,0000000.000s, 015.1C,00002191
2015-12-13 14:22:04 r, 00.00m,0000596700Hz,0000000000c,0000000.000s, 014.8C,00002191
2015-12-13 14:32:04 r, 00.00m,0000596739Hz,0000000000c,0000000.000s, 014.8C,00002191
2015-12-13 14:42:07 r, 00.00m,0000596745Hz,0000000000c,0000000.000s, 014.5C,00002191
2015-12-13 14:52:04 r, 00.00m,0000596826Hz,0000000000c,0000000.000s, 014.1C,00002191
2015-12-13 15:02:04 r, 00.00m,0000596821Hz,0000000000c,0000000.000s, 014.1C,00002191
2015-12-13 15:12:04 r, 00.00m,0000596807Hz,0000000000c,0000000.000s, 013.8C,00002191
2015-12-13 15:22:04 r, 00.00m,0000596854Hz,0000000000c,0000000.000s, 013.5C,00002191
2015-12-13 15:32:04 r, 00.00m,0000596851Hz,0000000000c,0000000.000s, 013.5C,00002191
2015-12-13 15:42:04 r, 00.00m,0000596825Hz,0000000000c,0000000.000s, 013.5C,00002191
2015-12-13 15:52:04 r, 00.00m,0000596893Hz,0000000000c,0000000.000s, 013.5C,00002191
2015-12-13 16:02:04 r, 05.87m,0000378090Hz,0000000000c,0000000.000s, 013.2C,00002191
2015-12-13 16:12:07 r, 06.32m,0000251061Hz,0000000000c,0000000.000s, 013.2C,00002191
2015-12-13 16:22:04 r, 06.93m,0000143752Hz,0000000000c,0000000.000s, 012.8C,00002191
2015-12-13 16:32:04 r, 07.79m,0000064704Hz,0000000000c,0000000.000s, 013.2C,00002191
2015-12-13 16:42:04 r, 08.86m,0000024114Hz,0000000000c,0000000.000s, 013.2C,00002191
2015-12-13 16:52:04 r, 10.37m,0000006042Hz,0000000000c,0000000.000s, 013.2C,00002191
2015-12-13 17:02:04 r, 12.14m,0000001181Hz,0000000000c,0000000.000s, 013.2C,00002191
2015-12-13 17:12:07 r, 13.97m,0000000218Hz,0000000000c,0000000.000s, 013.2C,00002191
2015-12-13 17:22:04 r, 15.64m,0000000046Hz,0000009885c,0000000.021s, 013.2C,00002191
2015-12-13 17:32:04 r, 17.15m,0000000011Hz,0000039863c,0000000.087s, 013.2C,00002191
2015-12-13 17:42:04 r, 18.27m,0000000004Hz,0000111310c,0000000.242s, 013.2C,00002191
2015-12-13 17:52:04 r, 19.12m,0000000002Hz,0000242512c,0000000.526s, 013.2C,00002191
2015-12-13 18:02:04 r, 19.33m,0000000002Hz,0000293655c,0000000.637s, 013.2C,00002191
2015-12-13 18:12:05 r, 19.63m,0000000001Hz,0000385892c,0000000.837s, 013.2C,00002191
2015-12-13 18:22:04 r, 20.02m,0000000001Hz,0000556836c,0000001.208s, 013.2C,00002191
2015-12-13 18:32:04 r, 20.07m,0000000001Hz,0000577960c,0000001.254s, 012.8C,00002191
2015-12-13 18:42:05 r, 19.12m,0000000002Hz,0000241021c,0000000.523s, 012.5C,00002191
2015-12-13 18:52:04 r, 18.89m,0000000002Hz,0000194761c,0000000.423s, 012.5C,00002191
2015-12-13 19:02:04 r, 18.59m,0000000003Hz,0000149732c,0000000.325s, 012.5C,00002191
2015-12-13 19:12:05 r, 18.61m,0000000003Hz,0000152868c,0000000.332s, 012.8C,00002191
2015-12-13 19:22:04 r, 18.74m,0000000003Hz,0000171681c,0000000.373s, 012.8C,00002191
2015-12-13 19:32:04 r, 19.03m,0000000002Hz,0000223485c,0000000.485s, 012.8C,00002191
2015-12-13 19:42:06 r, 18.83m,0000000002Hz,0000186184c,0000000.404s, 012.8C,00002191
2015-12-13 19:52:04 r, 19.03m,0000000002Hz,0000221589c,0000000.481s, 012.8C,00002191
2015-12-13 20:02:04 r, 19.46m,0000000002Hz,0000330219c,0000000.717s, 013.2C,00002191
2015-12-13 20:12:04 r, 19.46m,0000000001Hz,0000332034c,0000000.721s, 013.2C,00002191
2015-12-13 20:22:04 r, 19.30m,0000000002Hz,0000286037c,0000000.621s, 013.2C,00002191
2015-12-13 20:32:04 r, 19.23m,0000000001Hz,0000267736c,0000000.581s, 013.2C,00002191
2015-12-13 20:42:04 r, 18.94m,0000000002Hz,0000205496c,0000000.446s, 013.2C,00002191
2015-12-13 20:52:04 r, 19.01m,0000000002Hz,0000217905c,0000000.473s, 013.2C,00002191
2015-12-13 21:02:04 r, 18.90m,0000000002Hz,0000196902c,0000000.427s, 013.2C,00002191
2015-12-13 21:12:04 r, 18.73m,0000000003Hz,0000172018c,0000000.373s, 013.2C,00002191
2015-12-13 21:22:04 r, 18.63m,0000000003Hz,0000156120c,0000000.339s, 013.2C,00002191
2015-12-13 21:32:04 r, 18.54m,0000000003Hz,0000144004c,0000000.313s, 013.2C,00002191
2015-12-13 21:42:04 r, 18.43m,0000000004Hz,0000129612c,0000000.281s, 012.8C,00002191
2015-12-13 21:52:04 r, 19.05m,0000000002Hz,0000226517c,0000000.492s, 012.8C,00002191
2015-12-13 22:02:04 r, 19.26m,0000000001Hz,0000275536c,0000000.598s, 012.8C,00002191
2015-12-13 22:12:04 r, 19.21m,0000000002Hz,0000263900c,0000000.573s, 012.5C,00002191
2015-12-13 22:22:04 r, 19.34m,0000000002Hz,0000296562c,0000000.644s, 012.5C,00002191
2015-12-13 22:32:04 r, 19.18m,0000000002Hz,0000255280c,0000000.554s, 012.5C,00002191
2015-12-13 22:42:04 r, 19.39m,0000000001Hz,0000309316c,0000000.671s, 012.5C,00002191
2015-12-13 22:52:04 r, 19.58m,0000000001Hz,0000367809c,0000000.798s, 012.5C,00002191
2015-12-13 23:02:04 r, 19.43m,0000000001Hz,0000322558c,0000000.700s, 012.5C,00002191
2015-12-13 23:12:05 r, 19.31m,0000000002Hz,0000289941c,0000000.629s, 012.5C,00002191
2015-12-13 23:22:04 r, 19.16m,0000000001Hz,0000251579c,0000000.546s, 012.5C,00002191
2015-12-13 23:32:04 r, 19.63m,0000000002Hz,0000386838c,0000000.839s, 012.5C,00002191
2015-12-13 23:42:04 r, 19.77m,0000000001Hz,0000441790c,0000000.959s, 012.5C,00002191
2015-12-13 23:52:04 r, 19.50m,0000000001Hz,0000345648c,0000000.750s, 012.5C,00002191
